TimeEST,TemperatureF,Dew PointF,Humidity,Sea Level PressureIn,VisibilityMPH,Wind Direction,Wind SpeedMPH,Gust SpeedMPH,PrecipitationIn,Events,Conditions,WindDirDegrees,DateUTC
12:53 AM,30.0,16.0,56,30.23,10.0,Calm,Calm,-,N/A,,Clear,0,2014-01-31 05:53:00
1:20 AM,28.9,21.0,72,30.23,10.0,Calm,Calm,-,N/A,,Mostly Cloudy,0,2014-01-31 06:20:00
1:49 AM,28.4,17.6,64,30.23,10.0,Calm,Calm,-,N/A,,Partly Cloudy,0,2014-01-31 06:49:00
1:53 AM,28.0,18.0,66,30.23,10.0,Calm,Calm,-,N/A,,Partly Cloudy,0,2014-01-31 06:53:00
2:53 AM,27.0,19.9,75,30.23,10.0,Calm,Calm,-,N/A,,Clear,0,2014-01-31 07:53:00
3:53 AM,26.1,19.9,78,30.20,10.0,Calm,Calm,-,N/A,,Clear,0,2014-01-31 08:53:00
4:53 AM,25.0,18.0,75,30.20,10.0,Calm,Calm,-,N/A,,Clear,0,2014-01-31 09:53:00
5:53 AM,23.0,19.0,85,30.21,10.0,Calm,Calm,-,N/A,,Clear,0,2014-01-31 10:53:00
6:53 AM,23.0,18.0,81,30.24,10.0,Calm,Calm,-,N/A,,Clear,0,2014-01-31 11:53:00
7:53 AM,24.1,18.0,77,30.23,10.0,Calm,Calm,-,N/A,,Clear,0,2014-01-31 12:53:00
8:53 AM,28.9,19.9,69,30.27,10.0,Calm,Calm,-,N/A,,Clear,0,2014-01-31 13:53:00
9:53 AM,37.9,15.1,39,30.27,10.0,Calm,Calm,-,N/A,,Clear,0,2014-01-31 14:53:00
10:53 AM,42.1,10.0,27,30.26,10.0,Calm,Calm,-,N/A,,Clear,0,2014-01-31 15:53:00
11:53 AM,45.0,12.9,27,30.24,10.0,Variable,3.5,-,N/A,,Clear,0,2014-01-31 16:53:00
12:53 PM,48.0,10.9,22,30.20,10.0,Calm,Calm,-,N/A,,Clear,0,2014-01-31 17:53:00
1:53 PM,52.0,10.9,19,30.17,10.0,Calm,Calm,-,N/A,,Clear,0,2014-01-31 18:53:00
2:53 PM,54.0,10.9,18,30.16,10.0,Calm,Calm,-,N/A,,Clear,0,2014-01-31 19:53:00
3:53 PM,55.9,12.9,18,30.17,10.0,Calm,Calm,-,N/A,,Clear,0,2014-01-31 20:53:00
4:53 PM,55.9,12.9,18,30.17,10.0,Calm,Calm,-,N/A,,Clear,0,2014-01-31 21:53:00
5:53 PM,53.1,19.0,26,30.17,10.0,SSE,3.5,-,N/A,,Clear,160,2014-01-31 22:53:00
6:53 PM,42.1,24.1,49,30.19,10.0,SE,3.5,-,N/A,,Clear,140,2014-01-31 23:53:00
7:53 PM,37.9,25.0,60,30.19,10.0,Calm,Calm,-,N/A,,Clear,0,2014-02-01 00:53:00
8:53 PM,35.1,26.1,70,30.20,10.0,Calm,Calm,-,N/A,,Clear,0,2014-02-01 01:53:00
9:53 PM,33.1,26.1,75,30.21,10.0,Calm,Calm,-,N/A,,Clear,0,2014-02-01 02:53:00
10:53 PM,32.0,25.0,75,30.20,10.0,Calm,Calm,-,N/A,,Clear,0,2014-02-01 03:53:00
11:53 PM,30.9,26.1,82,30.20,10.0,Calm,Calm,-,N/A,,Clear,0,2014-02-01 04:53:00